[[{"header":{"parameterUnit":"m.s-1","parameterCategory":1,"la1":30.2991,"la2":30.254,"lo1":-89.0895,"lo2":-89.0444,"dy":0.0017,"dx":0.0017,"nx":28,"ny":28,"refTime":"2025-02-11T03:00:00:Z","depth":0,"parameterNumber":2,"parameterNumberName":"U-component_of_WINDS"},"data":[0,0,0,0,0,0,0,0,0,0,0,0,0,0,0,0,0,0,0,0,0,0,0,0,0,0,0,0,0,0,0,0,0,0,0,0,0,0,0,0,0,0,0,0,0,0,0,0,0,0,0,0,0,0,0,0,0,0,-0.4087,-0.4087,0,-0.4087,-0.4087,-0.4087,-0.4051,-0.405,-0.4049,-0.4048,-0.4049,-0.405,-0.4051,0,0,0,0,0,0,0,0,0,0,0,0,0,-0.4058,-0.4059,-0.4087,-0.4087,-0.4087,-0.4087,-0.4087,-0.4087,-0.4051,-0.405,-0.4049,-0.4048,-0.4049,-0.405,-0.4051,0,0,0,0,0,0,0,0,0,0,0,0,0,-0.4066,-0.4059,-0.4087,-0.4069,-0.4067,-0.4087,-0.4087,-0.4087,-0.4051,-0.405,-0.4048,-0.4047,-0.4048,-0.405,-0.4051,-0.4088,0,0,-0.4055,-0.4056,0,0,0,0,0,0,0,0,-0.4065,-0.4067,-0.4072,-0.407,-0.4069,-0.4067,-0.4077,-0.4087,-0.4051,-0.4057,-0.4048,-0.4046,-0.4056,-0.4057,-0.406,-0.4088,-0.4088,-0.4055,-0.4056,-0.4057,-0.4057,0,0,0,0,0,0,0,-0.4065,-0.4067,-0.4087,-0.4072,-0.407,-0.4062,-0.4061,-0.4079,-0.4065,-0.4057,-0.4054,-0.4055,-0.4055,-0.4059,-0.406,-0.4088,-0.4055,-0.4056,-0.4057,-0.4058,-0.4146,-0.4148,0,0,0,0,0,0,-0.4067,-0.4066,-0.4087,-0.4087,-0.4063,-0.4063,-0.4063,-0.4069,-0.4065,-0.4062,-0.4056,-0.4053,-0.4057,-0.4058,-0.406,-0.4103,-0.4057,-0.4058,-0.4059,-0.4145,-0.4146,-0.4148,0,0,0,0,0,0,-0.4066,-0.4069,-0.4087,-0.4076,-0.4078,-0.4065,-0.4073,-0.407,-0.4073,-0.4064,-0.4061,-0.4062,-0.4056,-0.4058,-0.4081,-0.4102,-0.4059,-0.406,-0.4143,-0.4145,-0.4147,-0.4189,0,0,0,0,0,0,-0.4065,-0.4069,-0.4082,-0.4076,-0.4078,-0.4108,-0.4074,-0.4071,-0.4076,-0.4072,-0.4069,-0.4067,-0.4055,-0.4079,-0.4082,-0.4104,-0.4061,-0.4141,-0.4144,-0.4147,-0.4186,-0.4193,-0.4199,0,0,0,0,0,-0.4064,-0.4094,-0.4083,-0.4086,-0.4095,-0.4109,-0.411,-0.4096,-0.4077,-0.4091,-0.4085,-0.4067,-0.4099,-0.4082,-0.4085,-0.4107,-0.4139,-0.4143,-0.4146,-0.4183,-0.4192,-0.4199,0,0,0,0,0,0,-0.4104,-0.4093,-0.4081,-0.4109,-0.411,-0.4103,-0.412,-0.4105,-0.4111,-0.4108,-0.409,-0.4089,-0.4116,-0.4113,-0.4094,-0.4143,-0.4116,-0.4121,-0.4143,-0.4151,-0.4157,-0.4158,-0.4062,0,0,0,0,0,-0.4115,-0.4128,-0.4118,-0.4144,-0.4145,-0.4133,-0.4138,-0.4127,-0.4128,-0.4128,-0.4123,-0.4125,-0.4135,-0.4143,-0.4152,-0.4185,-0.4184,-0.4202,-0.4208,-0.4213,-0.4218,-0.4236,-0.4244,-0.4159,-0.4159,-0.4159,0,0,-0.414,-0.4136,-0.4145,-0.4152,-0.4151,-0.4165,-0.4133,-0.4149,-0.4159,-0.413,-0.4152,-0.4149,-0.415,-0.4178,-0.4191,-0.4177,-0.4241,-0.4218,-0.4222,-0.4223,-0.424,-0.4248,-0.4255,-0.4162,-0.4161,-0.4161,0,0,-0.4193,-0.419,-0.4213,-0.4212,-0.4212,-0.4203,-0.4208,-0.4203,-0.42,-0.4221,-0.42,-0.4212,-0.423,-0.4232,-0.4235,-0.4288,-0.4272,-0.4291,-0.4325,-0.4343,-0.4349,-0.4355,-0.4375,-0.4382,-0.4295,-0.4295,-0.4296,0,-0.4224,-0.4243,-0.4226,-0.4243,-0.4247,-0.4221,-0.4244,-0.4244,-0.4247,-0.4251,-0.4235,-0.4258,-0.4256,-0.4285,-0.4298,-0.4301,-0.4308,-0.4292,-0.435,-0.4355,-0.436,-0.4379,-0.4387,-0.4298,-0.4298,-0.4297,-0.4297,0,-0.4282,-0.4296,-0.4314,-0.4317,-0.4322,-0.4342,-0.4328,-0.4336,-0.4324,-0.4317,-0.434,-0.4337,-0.4345,-0.4351,-0.4339,-0.4379,-0.437,-0.4353,-0.4326,-0.4371,-0.4389,-0.4396,-0.4301,-0.4301,-0.43,-0.4299,0,0,-0.4361,-0.4353,-0.436,-0.4361,-0.4358,-0.4369,-0.4387,-0.4395,-0.4403,-0.4405,-0.4421,-0.4437,-0.442,-0.4424,-0.4412,-0.4428,-0.4471,-0.4408,-0.4408,-0.4421,-0.4515,-0.4529,-0.4538,-0.446,-0.4461,-0.4462,-0.4515,0,-0.4413,-0.4444,-0.4429,-0.4462,-0.4475,-0.445,-0.4466,-0.4466,-0.446,-0.4471,-0.4464,-0.4476,-0.4453,-0.4455,-0.4469,-0.4463,-0.449,-0.4459,-0.4475,-0.4476,-0.4477,-0.4547,-0.4562,-0.4612,-0.4522,-0.4523,-0.4524,0,-0.4478,-0.4482,-0.4517,-0.4512,-0.4517,-0.4532,-0.4538,-0.4547,-0.4547,-0.4542,-0.4546,-0.453,-0.4549,-0.4521,-0.4547,-0.4526,-0.4532,-0.453,-0.4531,-0.4534,-0.4504,-0.4552,-0.4628,-0.4636,-0.4534,-0.4533,-0.4532,0,-0.4533,-0.4548,-0.4571,-0.4572,-0.4567,-0.4578,-0.4576,-0.4574,-0.458,-0.4585,-0.4589,-0.4596,-0.46,-0.4607,-0.4594,-0.4575,-0.4622,-0.4593,-0.4618,-0.4619,-0.4631,-0.463,-0.471,-0.4632,-0.4632,-0.4632,-0.4632,0,-0.4594,-0.4616,-0.4596,-0.461,-0.4634,-0.4616,-0.4641,-0.4637,-0.4635,-0.4649,-0.4627,-0.464,-0.4622,-0.4633,-0.4623,-0.4646,-0.4648,-0.4645,-0.4642,-0.4648,-0.4648,-0.4652,-0.4649,-0.4634,-0.4633,-0.4633,-0.4633,0,-0.466,-0.4647,-0.4671,-0.4663,-0.4662,-0.468,-0.4674,-0.4687,-0.4679,-0.4696,-0.4699,-0.4687,-0.4699,-0.4686,-0.4697,-0.4691,-0.4722,-0.4714,-0.4723,-0.4721,-0.4747,-0.4746,-0.4833,-0.4844,-0.4758,-0.4759,-0.476,0,-0.4701,-0.4717,-0.4711,-0.4718,-0.4718,-0.4729,-0.4735,-0.4717,-0.4724,-0.4725,-0.4738,-0.4748,-0.4756,-0.4776,-0.4769,-0.4777,-0.477,-0.48,-0.4771,-0.4776,-0.4772,-0.4772,-0.4774,-0.4806,-0.4807,-0.4808,-0.4809,0,-0.4774,-0.4767,-0.4775,-0.4781,-0.4788,-0.4792,-0.4795,-0.4802,-0.4784,-0.4793,-0.4805,-0.481,-0.4821,-0.4832,-0.4839,-0.4837,-0.4821,-0.4818,-0.4824,-0.4831,-0.4836,-0.4835,-0.474,-0.4816,-0.4816,-0.4815,-0.4815,-0.4814,-0.483,-0.4844,-0.4842,-0.4852,-0.4851,-0.4854,-0.4866,-0.4859,-0.4869,-0.4876,-0.4865,-0.488,-0.488,-0.4886,-0.4887,-0.4898,-0.4886,-0.4895,-0.4898,-0.4901,-0.4905,-0.4832,-0.4899,-0.4899,-0.4899,-0.4899,-0.4899,0,-0.4903,-0.49,-0.491,-0.4914,-0.4922,-0.4904,-0.4906,-0.4914,-0.4927,-0.4928,-0.4935,-0.4949,-0.4959,-0.4952,-0.496,-0.4971,-0.4964,-0.4974,-0.4974,-0.4974,-0.4915,-0.4909,-0.498,-0.498,-0.498,-0.498,-0.498,-0.498,-0.4943,-0.4966,-0.4958,-0.498,-0.4977,-0.4991,-0.4994,-0.4997,-0.4997,-0.5013,-0.5021,-0.5016,-0.5013,-0.5021,-0.503,-0.5027,-0.5032,-0.5046,-0.5041,-0.4986,-0.4978,-0.4971,-0.4965,-0.5047,-0.5047,-0.5099,-0.51,-0.51]},{"header":{"parameterUnit":"m.s-1","parameterCategory":1,"la1":30.2991,"la2":30.254,"lo1":-89.0895,"lo2":-89.0444,"dy":0.0017,"dx":0.0017,"nx":28,"ny":28,"refTime":"2025-02-11T03:00:00:Z","depth":0,"parameterNumber":3,"parameterNumberName":"V-component_of_WINDS"},"data":[0,0,0,0,0,0,0,0,0,0,0,0,0,0,0,0,0,0,0,0,0,0,0,0,0,0,0,0,0,0,0,0,0,0,0,0,0,0,0,0,0,0,0,0,0,0,0,0,0,0,0,0,0,0,0,0,0,0,4.5539,4.5543,0,4.5884,4.5888,4.5892,4.5987,4.5985,4.5983,4.5981,4.6334,4.6345,4.6356,0,0,0,0,0,0,0,0,0,0,0,0,0,4.4965,4.4975,4.5539,4.5543,4.5548,4.5883,4.5888,4.5893,4.5987,4.5985,4.5982,4.598,4.633,4.6343,4.6357,0,0,0,0,0,0,0,0,0,0,0,0,0,4.5252,4.4978,4.5538,4.5635,4.5647,4.5883,4.5888,4.5894,4.5988,4.5985,4.5982,4.5979,4.6326,4.6342,4.6359,4.6522,0,0,4.641,4.6417,0,0,0,0,0,0,0,0,4.5236,4.5273,4.5617,4.5629,4.5643,4.5889,4.5815,4.6105,4.5988,4.5858,4.5981,4.5978,4.6188,4.6216,4.6287,4.6539,4.6554,4.6412,4.6422,4.6429,4.6434,0,0,0,0,0,0,0,4.5216,4.5259,4.5676,4.5622,4.5638,4.5662,4.57,4.5871,4.6036,4.587,4.5877,4.5917,4.6195,4.6271,4.6296,4.6559,4.6411,4.6426,4.6437,4.6443,4.6967,4.6971,0,0,0,0,0,0,4.5179,4.5242,4.5665,4.5686,4.5428,4.5675,4.5717,4.5813,4.6034,4.6065,4.5919,4.592,4.6244,4.6277,4.6309,4.652,4.6429,4.6445,4.6454,4.6963,4.6968,4.6972,0,0,0,0,0,0,4.5167,4.5216,4.5651,4.5466,4.5524,4.5688,4.5795,4.5822,4.5898,4.6072,4.6102,4.5966,4.6243,4.6285,4.647,4.6533,4.6452,4.6468,4.6959,4.6965,4.697,4.6939,0,0,0,0,0,0,4.515,4.5211,4.5274,4.5467,4.5533,4.5805,4.5799,4.5831,4.5927,4.5931,4.6124,4.6153,4.6244,4.6444,4.6487,4.6555,4.6481,4.6954,4.6962,4.6968,4.6935,4.6942,4.6949,0,0,0,0,0,4.5129,4.525,4.5276,4.5327,4.5615,4.5808,4.5846,4.5948,4.5931,4.5997,4.6109,4.6147,4.6518,4.6462,4.6511,4.6585,4.6951,4.6959,4.6968,4.6932,4.6941,4.6949,0,0,0,0,0,0,4.5059,4.5277,4.5309,4.5496,4.5633,4.5824,4.5909,4.5954,4.6098,4.6096,4.6216,4.6259,4.6436,4.6529,4.6462,4.6758,4.6735,4.6754,4.6691,4.6702,4.6709,4.6684,4.6495,0,0,0,0,0,4.5065,4.5203,4.5386,4.5534,4.5601,4.5743,4.5831,4.5898,4.6045,4.6103,4.6229,4.637,4.6519,4.6615,4.6761,4.6948,4.6994,4.7023,4.703,4.7035,4.7051,4.7162,4.7178,4.7,4.7,4.7,0,0,4.5079,4.5216,4.5295,4.5523,4.5637,4.578,4.5791,4.594,4.6047,4.6126,4.6309,4.6406,4.6572,4.6759,4.6848,4.6841,4.711,4.7046,4.7049,4.7062,4.7172,4.7189,4.7204,4.7006,4.7005,4.7004,0,0,4.518,4.5294,4.5433,4.5548,4.5721,4.5815,4.5848,4.6034,4.6102,4.6288,4.6351,4.648,4.6733,4.6851,4.6943,4.7091,4.7133,4.7135,4.7174,4.728,4.7295,4.7308,4.7365,4.7384,4.715,4.715,4.715,0,4.5176,4.5392,4.5498,4.5646,4.5746,4.5824,4.5967,4.6072,4.6284,4.6352,4.6342,4.6665,4.6781,4.7,4.7036,4.7107,4.7151,4.7115,4.7284,4.7298,4.7312,4.7368,4.7389,4.7149,4.7149,4.7149,4.7149,0,4.5382,4.5531,4.5621,4.5827,4.5937,4.608,4.6209,4.6308,4.6366,4.6462,4.6652,4.6795,4.6974,4.703,4.7087,4.7259,4.725,4.726,4.7241,4.7327,4.7382,4.7404,4.7149,4.7149,4.7149,4.7149,0,0,4.5447,4.5711,4.5743,4.5839,4.6038,4.6156,4.6304,4.6481,4.6565,4.6708,4.6839,4.7053,4.7065,4.717,4.7241,4.7333,4.7448,4.7333,4.7339,4.7354,4.7651,4.7646,4.7669,4.7475,4.748,4.7483,4.7639,0,4.5576,4.5845,4.5946,4.6167,4.6309,4.6387,4.6517,4.6654,4.6748,4.6882,4.6986,4.7138,4.714,4.7205,4.7299,4.7414,4.751,4.7403,4.7601,4.7607,4.7561,4.7697,4.7691,4.7831,4.7661,4.7664,4.7667,0,4.5762,4.591,4.6146,4.6332,4.6395,4.651,4.6682,4.6809,4.6967,4.7029,4.7148,4.7213,4.7375,4.7343,4.7568,4.7494,4.758,4.7649,4.7657,4.7682,4.7645,4.773,4.7877,4.79,4.7701,4.7698,4.7696,0,4.5792,4.605,4.6227,4.6306,4.6525,4.6605,4.67,4.6855,4.6956,4.7106,4.7174,4.7339,4.7431,4.7559,4.7669,4.7635,4.7886,4.7862,4.7945,4.7943,4.7998,4.7993,4.8165,4.8045,4.8045,4.8045,4.8044,0,4.5928,4.607,4.6244,4.6353,4.6516,4.6631,4.6789,4.6889,4.7027,4.7158,4.7233,4.7354,4.749,4.763,4.7716,4.7893,4.7932,4.7989,4.8011,4.7985,4.7979,4.8046,4.8041,4.805,4.8049,4.8048,4.8047,0,4.599,4.6112,4.631,4.6502,4.6554,4.6666,4.6832,4.6941,4.7039,4.7204,4.7249,4.7403,4.7571,4.7693,4.7909,4.7968,4.8159,4.8178,4.8106,4.8118,4.8196,4.8189,4.8421,4.8459,4.8309,4.831,4.8311,0,4.607,4.6183,4.6388,4.6482,4.6577,4.6726,4.6831,4.6949,4.7055,4.7245,4.7332,4.7506,4.7652,4.7918,4.805,4.8217,4.8244,4.8313,4.8269,4.8241,4.8251,4.8245,4.8259,4.8321,4.8322,4.8323,4.8323,0,4.6202,4.6258,4.6406,4.6577,4.6699,4.6839,4.6979,4.7052,4.7195,4.731,4.7485,4.7598,4.7821,4.7994,4.8174,4.8273,4.8325,4.8336,4.8365,4.8342,4.8298,4.8328,4.8129,4.8331,4.833,4.833,4.8329,4.8329,4.628,4.6386,4.6548,4.6711,4.683,4.696,4.7075,4.7188,4.7335,4.7527,4.7587,4.7769,4.7927,4.8175,4.8277,4.8422,4.8419,4.8459,4.8471,4.848,4.8482,4.8271,4.8454,4.8454,4.8454,4.8454,4.8454,0,4.642,4.6529,4.6678,4.6874,4.7004,4.7039,4.7198,4.7304,4.7463,4.7607,4.775,4.7952,4.8121,4.8267,4.8443,4.8531,4.8559,4.8574,4.8571,4.8594,4.8471,4.8431,4.8549,4.8548,4.8548,4.8548,4.8548,4.8548,4.6509,4.6691,4.6766,4.7008,4.7117,4.7296,4.7384,4.7506,4.7622,4.7845,4.7987,4.8081,4.8227,4.8414,4.8572,4.8611,4.8674,4.8684,4.8729,4.8612,4.8602,4.8591,4.8554,4.8696,4.8696,4.884,4.8841,4.8842]}]]